User: anonymous   Login
Location: Unspecified
(0.0000°N, 0.0000°E)
Time: 03:49:41
(UTC+00:00)
Language:

YAOGAN 9B - Orbit

View from above orbital plane
View from above orbital plane
View from above satellite
View from above satellite

Ground track
Ground track

The orbit data is extracted from the following two-line orbital elements,

1 36414U 10009B   18292.43205641 -.00000074 +00000-0 +21595-4 0  9993
2 36414 063.4009 012.8590 0290891 005.4370 354.9692 13.45180484423752
Epoch (UTC): 19 October 2018 10:22:09
Eccentricity: 0.0290891
inclination: 63.4009°
perigee height: 873 km
apogee height: 1307 km
right ascension of ascending node: 12.8590°
argument of perigee: 5.4370°
revolutions per day: 13.45180484
mean anomaly at epoch: 354.9692°
orbit number at epoch: 42375

The dashed part of the orbit path shows where the satellite is in the earth's shadow,  

DLR